Regional Weather Roundup
Issued by NWS State College, PA

Home | Current Version | Previous Version | Text Only | Print | Product List | Glossary On
Versions: 1 2 3 4 5 6 7 8 9 10 11 12 13 14 15 16 17 18 19 20 21 22 23 24 25 26 27 28 29 30 31 32 33 34 35 36 37 38 39 40 41 42 43 44 45 46 47 48 49 50
000
ASUS41 KCTP 040003
RWRCTP

REGIONAL WEATHER ROUNDUP
NATIONAL WEATHER SERVICE STATE COLLEGE PA
800 PM EDT MON AUG 03 2015

Note: "fair" indicates few or no clouds below 12,000 feet with no
significant weather and/or obstructions to visibility.

* = STATION THAT DOES NOT REPORT PRECIPITATION /E.G. RAIN...SNOW...ETC/
    THUNDER OR FOG.

PAZ002>004-007>009-013>016-020>023-029>032-040100-
WESTERN PENNSYLVANIA

CITY           SKY/WX    TMP DP  RH WIND       PRES   REMARKS
ERIE           PTCLDY    75  61  61 W5        29.80R
MEADVILLE      LGT RAIN  75  55  49 SW3       29.83R
FRANKLIN*      CLEAR     73  59  60 CALM      29.85R
NEW CASTLE     MOCLDY    79  65  62 CALM      29.82R
BEAVER COUNTY  NOT AVBL
BUTLER*        MOCLDY    73  66  78 SW6       29.85R
PITTSBURGH INT TSTM      70  66  87 SW13G23   29.82F
PITTSBURGH     MOCLDY    68  64  87 S10       29.85R
INDIANA*       NOT AVBL
LATROBE        MOCLDY    70  70 100 CALM      29.86S
WASHINGTON CO* NOT AVBL
$$

PAZ004>006-010>012-017>019-024>028-033>037-041-042-045-046-049>053-040100-
CENTRAL PENNSYLVANIA

CITY           SKY/WX    TMP DP  RH WIND       PRES   REMARKS
BRADFORD       CLEAR     72  57  59 SW3       29.85S
DUBOIS         CLOUDY    70  65  84 CALM      29.85S
CLEARFIELD     CLOUDY    73  62  68 SW7       29.85R
JOHNSTOWN      MOCLDY    72  60  66 W6        29.89S
ALTOONA        MOCLDY    75  62  64 CALM      29.86S
STATE COLLEGE  MOCLDY    75  64  69 W6        29.83R
WILLIAMSPORT   MOCLDY    81  59  47 SW7       29.77R
SELINSGROVE    MOCLDY    75  67  76 CALM      29.79R
FT INDIANTOWN  MOCLDY    72  70  92 CALM      29.80R
CAPITAL CITY   MOCLDY    83  62  49 S7        29.79R
HARRISBURG     MOCLDY    84  62  47 VRB5      29.78S
YORK           PTCLDY    81  63  54 S6        29.81R
$$

PAZ038>040-043-044-047-048-054-055-060>062-067>071-040100-
EASTERN PENNSYLVANIA

CITY           SKY/WX    TMP DP  RH WIND       PRES   REMARKS
SCRANTON       CLEAR     82  61  48 SW7       29.79S
MOUNT POCONO   MOCLDY    75  62  64 SW7       29.86R
ALLENTOWN      LGT RAIN  74  66  76 SW6       29.80R
QUAKERTOWN*    MOCLDY    81  63  54 SW7       29.82S
READING        PTCLDY    82  64  54 S10       29.79R
LANCASTER      PTCLDY    81  66  60 S8        29.80S
COATESVILLE    CLEAR     79  66  65 S3        29.84R
POTTSTOWN      PTCLDY    81  64  56 S6        29.83S
BLUE BELL      CLEAR     82  63  51 SW9       29.80S
DOYLESTOWN     PTCLDY    81  60  48 S5        29.81R
WILLOW GROVE   NOT AVBL
NORTH PHILA    PTCLDY    87  59  38 SW9G20    29.81S
PHILADELPHIA   PTCLDY    87  62  43 SW15      29.80S
$$



USA.gov is the U.S. government's official web portal to all federal, state and local government web resources and services.